Flag for U.S.A. Weather past 2 weeks in Glendale, Arizona, U.S.A.

Now
100 °F

Sunny.


Feels Like: 99 °F
Forecast: 84 / 102 °F
Wind: No wind

Location: Phoenix-Deer Valley Municipal Airport

Current Time: Jul 30, 2015 at 4:32:28 PM

Latest Report: Jul 30, 2015 at 3:53 PM


Visibility: 10 mi

Pressure: 29.83 "Hg

Humidity: 24%

Dew point: 57 °F

Location of GlendaleLocation

Historic Weather in Glendale — Graph

°F

Glendale temperature yesterday

Maximum temperature yesterday: 99 °F (at 4:53 PM)
Minimum temperature yesterday: 85 °F (at 3:53 AM)
Average temperature yesterday: 90 °F

Past Weeks' High & Low Weather Summary

 TemperatureHumidityPressure
High107 °F (Jul 26, 3:53 PM)85% (Jul 19, 1:53 AM)30.01 "Hg (Jul 19, 1:53 AM)
Low75 °F (Jul 18, 10:53 PM)7% (Jul 25, 3:53 PM)29.64 "Hg (Jul 21, 6:53 PM)
Average91 °F30%29.81 "Hg
* Reported Jul 15 2:53 PM — Jul 30 2:53 PM, Glendale, Weather by CustomWeather, © 2015

Note: Actual official high and low records may vary slightly from our data, if they occured in-between our weather recording intervals... More about our weather records

Advertising

Glendale weather history for previous 24 hours

 ConditionsComfort  
Time TempWeatherWind HumidityBarometerVisibility
2:53 PM
Thu, Jul 30
100 °FSunny.6 mph24%29.85 "Hg10 mi
1:53 PM98 °FSunny.7 mph26%29.88 "Hg10 mi
12:53 PM98 °FSunny.7 mph26%29.90 "Hg10 mi
11:53 AM98 °FSunny.8 mph26%29.93 "Hg10 mi
10:53 AM94 °FSunny.No wind31%29.95 "Hg10 mi
9:53 AM92 °FSunny.8 mph33%29.96 "Hg10 mi
8:53 AM90 °FSunny.5 mph37%29.96 "Hg10 mi
7:53 AM87 °FSunny.5 mph42%29.96 "Hg10 mi
6:53 AM84 °FSunny.3 mph48%29.94 "Hg10 mi
5:53 AM83 °FSunny.5 mph50%29.93 "Hg10 mi
4:53 AM83 °FClear.No wind50%29.90 "Hg10 mi
3:53 AM83 °FClear.3 mph48%29.90 "Hg10 mi
2:53 AM84 °FClear.5 mph48%29.89 "Hg10 mi
1:53 AM84 °FClear.3 mph46%29.90 "Hg10 mi
12:53 AM85 °FClear.9 mph45%29.89 "Hg10 mi
11:53 PM
Wed, Jul 29
86 °FClear.8 mph42%29.90 "Hg10 mi
10:53 PM87 °FClear.10 mph39%29.91 "Hg10 mi
9:53 PM86 °FClear.13 mph43%29.91 "Hg10 mi
8:53 PM88 °FPassing clouds.13 mph36%29.89 "Hg10 mi
7:53 PM90 °FClear.13 mph33%29.87 "Hg10 mi
6:53 PM96 °FSunny.6 mph26%29.84 "Hg10 mi
5:53 PM97 °FSunny.9 mph27%29.82 "Hg10 mi
4:53 PM99 °FSunny.6 mph27%29.80 "Hg10 mi
Weather by CustomWeather, © 2015

See weather overviewHow to use our weather pages